Time,TemperatureF,DewpointF,PressureIn,WindDirection,WindDirectionDegrees,WindSpeedMPH,WindSpeedGustMPH,Humidity,HourlyPrecipIn,Conditions,Clouds,dailyrainin,SoftwareType,DateUTC
2013-10-19 00:01:00,36.9,13.5,30.02,SW,225,1.1,1.1,38,0.00,,,0.00,WUHU216HW,2013-10-19 05:01:00,
2013-10-19 00:06:00,36.7,13.3,30.01,WSW,248,1.1,1.1,38,0.00,,,0.00,WUHU216HW,2013-10-19 05:06:00,
2013-10-19 00:11:00,36.7,13.3,30.01,SW,225,0.4,1.1,38,0.00,,,0.00,WUHU216HW,2013-10-19 05:11:00,
2013-10-19 00:16:00,36.7,13.3,30.01,SW,225,1.1,1.8,38,0.00,,,0.00,WUHU216HW,2013-10-19 05:16:00,
2013-10-19 00:21:00,36.5,13.2,30.01,SW,225,0.9,1.8,38,0.00,,,0.00,WUHU216HW,2013-10-19 05:21:00,
2013-10-19 00:26:00,36.5,13.2,30.01,West,270,2.9,2.9,38,0.00,,,0.00,WUHU216HW,2013-10-19 05:26:00,
2013-10-19 00:31:00,36.4,13.1,30.00,SSW,203,0.2,2.9,38,0.00,,,0.00,WUHU216HW,2013-10-19 05:31:00,
2013-10-19 00:36:00,36.4,13.1,30.00,SW,225,0.7,0.7,38,0.00,,,0.00,WUHU216HW,2013-10-19 05:36:00,
2013-10-19 00:41:00,36.0,13.3,30.00,SW,225,0.7,1.3,39,0.00,,,0.00,WUHU216HW,2013-10-19 05:41:00,
2013-10-19 00:46:00,36.0,13.3,30.00,WNW,293,1.3,1.3,39,0.00,,,0.00,WUHU216HW,2013-10-19 05:46:00,
2013-10-19 00:51:00,36.2,13.5,30.01,WNW,293,1.1,1.3,39,0.00,,,0.00,WUHU216HW,2013-10-19 05:51:00,
2013-10-19 00:56:00,36.2,13.5,30.01,WSW,248,1.6,1.6,39,0.00,,,0.00,WUHU216HW,2013-10-19 05:56:00,
2013-10-19 01:01:00,36.4,13.7,30.00,NW,315,1.3,1.6,39,0.00,,,0.00,WUHU216HW,2013-10-19 06:01:00,
2013-10-19 01:06:00,36.4,13.1,30.00,SW,225,1.1,2.5,38,0.00,,,0.00,WUHU216HW,2013-10-19 06:06:00,
2013-10-19 01:11:00,36.5,13.2,30.00,NW,315,0.4,2.5,38,0.00,,,0.00,WUHU216HW,2013-10-19 06:11:00,
2013-10-19 01:16:00,36.5,13.2,30.01,NNW,338,2.0,2.0,38,0.00,,,0.00,WUHU216HW,2013-10-19 06:16:00,
2013-10-19 01:21:00,36.7,13.3,30.00,SSW,203,1.8,2.0,38,0.00,,,0.00,WUHU216HW,2013-10-19 06:21:00,
2013-10-19 01:26:00,36.7,13.3,30.00,WSW,248,4.5,4.5,38,0.00,,,0.00,WUHU216HW,2013-10-19 06:26:00,
2013-10-19 01:31:00,36.7,13.3,30.00,NNW,338,0.4,4.5,38,0.00,,,0.00,WUHU216HW,2013-10-19 06:31:00,
2013-10-19 01:36:00,36.4,13.7,30.00,North,0,1.1,4.5,39,0.00,,,0.00,WUHU216HW,2013-10-19 06:36:00,
2013-10-19 01:41:00,36.2,13.5,30.00,WSW,248,3.1,3.1,39,0.00,,,0.00,WUHU216HW,2013-10-19 06:41:00,
2013-10-19 01:46:00,36.2,13.5,30.00,SSW,203,1.8,3.1,39,0.00,,,0.00,WUHU216HW,2013-10-19 06:46:00,
2013-10-19 01:51:00,35.8,13.2,30.00,SSW,203,1.8,3.1,39,0.00,,,0.00,WUHU216HW,2013-10-19 06:51:00,
2013-10-19 01:56:00,35.6,13.1,30.00,West,270,0.9,1.8,39,0.00,,,0.00,WUHU216HW,2013-10-19 06:56:00,
2013-10-19 02:01:00,35.6,13.1,30.00,SW,225,1.1,1.8,39,0.00,,,0.00,WUHU216HW,2013-10-19 07:01:00,
2013-10-19 02:06:00,35.5,13.5,29.99,SSW,203,1.6,1.6,40,0.00,,,0.00,WUHU216HW,2013-10-19 07:06:00,
2013-10-19 02:11:00,35.3,13.3,30.00,SSW,203,1.1,1.6,40,0.00,,,0.00,WUHU216HW,2013-10-19 07:11:00,
2013-10-19 02:16:00,35.1,13.2,30.00,SSW,203,1.1,1.6,40,0.00,,,0.00,WUHU216HW,2013-10-19 07:16:00,
2013-10-19 02:21:00,35.1,13.2,29.99,SW,225,2.5,2.5,40,0.00,,,0.00,WUHU216HW,2013-10-19 07:21:00,
2013-10-19 02:26:00,34.9,13.1,29.99,SSW,203,2.0,2.5,40,0.00,,,0.00,WUHU216HW,2013-10-19 07:26:00,
2013-10-19 02:31:00,34.9,13.1,29.99,SW,225,4.5,4.5,40,0.00,,,0.00,WUHU216HW,2013-10-19 07:31:00,
2013-10-19 02:36:00,34.9,13.1,29.99,SSW,203,2.5,4.5,40,0.00,,,0.00,WUHU216HW,2013-10-19 07:36:00,
2013-10-19 02:41:00,34.4,13.1,29.99,WSW,248,1.8,4.5,41,0.00,,,0.00,WUHU216HW,2013-10-19 07:41:00,
2013-10-19 02:46:00,34.4,13.1,29.99,SW,225,2.2,2.2,41,0.00,,,0.00,WUHU216HW,2013-10-19 07:46:00,
2013-10-19 02:51:00,34.4,13.1,29.99,SW,225,1.8,2.2,41,0.00,,,0.00,WUHU216HW,2013-10-19 07:51:00,
2013-10-19 02:56:00,34.2,12.9,29.99,SSW,203,3.1,3.1,41,0.01,,,0.01,WUHU216HW,2013-10-19 07:56:00,
2013-10-19 03:01:00,34.2,12.9,29.99,SW,225,1.6,3.1,41,0.01,,,0.01,WUHU216HW,2013-10-19 08:01:00,
2013-10-19 03:06:00,34.4,13.1,29.98,SSW,203,3.4,3.4,41,0.01,,,0.01,WUHU216HW,2013-10-19 08:06:00,
2013-10-19 03:11:00,34.4,13.1,29.98,SSW,203,3.1,3.4,41,0.01,,,0.01,WUHU216HW,2013-10-19 08:11:00,
2013-10-19 03:16:00,34.4,13.1,29.98,WSW,248,2.5,3.1,41,0.01,,,0.01,WUHU216HW,2013-10-19 08:16:00,
2013-10-19 03:21:00,34.4,13.1,29.99,WSW,248,2.7,3.1,41,0.01,,,0.01,WUHU216HW,2013-10-19 08:21:00,
2013-10-19 03:26:00,34.4,13.1,29.98,SW,225,6.9,6.9,41,0.01,,,0.01,WUHU216HW,2013-10-19 08:26:00,
2013-10-19 03:31:00,34.4,13.1,29.98,SW,225,1.6,6.9,41,0.01,,,0.01,WUHU216HW,2013-10-19 08:31:00,
2013-10-19 03:36:00,34.4,13.1,29.99,West,270,1.8,6.9,41,0.01,,,0.01,WUHU216HW,2013-10-19 08:36:00,
2013-10-19 03:41:00,34.4,13.1,29.99,West,270,1.8,1.8,41,0.01,,,0.01,WUHU216HW,2013-10-19 08:41:00,
2013-10-19 04:00:00,34.6,13.2,29.98,SSW,203,2.5,2.5,41,0.00,,,0.01,WUHU216HW,2013-10-19 09:00:00,
2013-10-19 04:05:00,34.6,13.2,29.98,WSW,248,2.0,2.9,41,0.00,,,0.01,WUHU216HW,2013-10-19 09:05:00,
2013-10-19 04:10:00,34.6,13.2,29.98,West,270,1.1,2.9,41,0.00,,,0.01,WUHU216HW,2013-10-19 09:10:00,
2013-10-19 04:15:00,34.6,13.2,29.98,SW,225,0.4,2.0,41,0.00,,,0.01,WUHU216HW,2013-10-19 09:15:00,
2013-10-19 04:20:00,34.6,13.2,29.98,SW,225,1.8,4.0,41,0.00,,,0.01,WUHU216HW,2013-10-19 09:20:00,
2013-10-19 04:25:00,34.6,13.2,29.98,SSW,203,2.5,4.0,41,0.00,,,0.01,WUHU216HW,2013-10-19 09:25:00,
2013-10-19 04:30:00,34.6,13.2,29.98,SSW,203,3.8,3.8,41,0.00,,,0.01,WUHU216HW,2013-10-19 09:30:00,
2013-10-19 04:35:00,34.6,13.2,29.97,SW,225,1.8,3.8,41,0.00,,,0.01,WUHU216HW,2013-10-19 09:35:00,
2013-10-19 04:39:00,34.6,13.2,29.98,WSW,248,4.0,4.0,41,0.00,,,0.01,WUHU216HW,2013-10-19 09:39:00,
2013-10-19 04:44:00,34.4,13.1,29.98,WSW,248,1.8,4.0,41,0.00,,,0.01,WUHU216HW,2013-10-19 09:44:00,
2013-10-19 04:49:00,34.4,13.1,29.98,WSW,248,2.9,4.0,41,0.00,,,0.01,WUHU216HW,2013-10-19 09:49:00,
2013-10-19 04:54:00,34.6,13.2,29.98,SSW,203,0.4,3.4,41,0.00,,,0.01,WUHU216HW,2013-10-19 09:54:00,
2013-10-19 04:59:00,34.4,13.1,29.98,SSW,203,2.5,3.4,41,0.00,,,0.01,WUHU216HW,2013-10-19 09:59:00,
2013-10-19 05:04:00,34.6,13.2,29.98,SW,225,7.6,7.6,41,0.00,,,0.01,WUHU216HW,2013-10-19 10:04:00,
2013-10-19 05:09:00,34.4,13.1,29.98,SW,225,4.3,7.6,41,0.00,,,0.01,WUHU216HW,2013-10-19 10:09:00,
2013-10-19 05:14:00,34.4,13.1,29.98,WSW,248,4.5,7.6,41,0.00,,,0.01,WUHU216HW,2013-10-19 10:14:00,
2013-10-19 05:19:00,34.4,13.1,29.98,SW,225,2.2,4.5,41,0.00,,,0.01,WUHU216HW,2013-10-19 10:19:00,
2013-10-19 05:24:00,34.2,12.9,29.98,SW,225,3.8,3.8,41,0.00,,,0.01,WUHU216HW,2013-10-19 10:24:00,
2013-10-19 05:29:00,34.4,13.1,29.98,SW,225,2.7,3.8,41,0.00,,,0.01,WUHU216HW,2013-10-19 10:29:00,
2013-10-19 05:34:00,34.4,13.1,29.98,SSW,203,2.2,3.8,41,0.00,,,0.01,WUHU216HW,2013-10-19 10:34:00,
2013-10-19 05:39:00,34.4,13.1,29.97,SSW,203,4.9,4.9,41,0.00,,,0.01,WUHU216HW,2013-10-19 10:39:00,
2013-10-19 05:44:00,34.2,12.9,29.97,WSW,248,6.7,6.7,41,0.00,,,0.01,WUHU216HW,2013-10-19 10:44:00,
2013-10-19 05:49:00,34.2,12.9,29.97,WSW,248,4.3,6.7,41,0.00,,,0.01,WUHU216HW,2013-10-19 10:49:00,
2013-10-19 05:54:00,34.2,13.4,29.97,SSW,203,4.3,6.7,42,0.00,,,0.01,WUHU216HW,2013-10-19 10:54:00,
2013-10-19 05:59:00,34.0,13.2,29.97,SSW,203,2.9,4.3,42,0.00,,,0.01,WUHU216HW,2013-10-19 10:59:00,
2013-10-19 06:04:00,33.8,13.1,29.98,SSW,203,4.5,4.5,42,0.00,,,0.01,WUHU216HW,2013-10-19 11:04:00,
2013-10-19 06:09:00,33.8,12.6,29.98,SSW,203,4.3,6.9,41,0.00,,,0.01,WUHU216HW,2013-10-19 11:09:00,
2013-10-19 06:14:00,33.8,12.6,29.97,South,180,5.1,6.9,41,0.00,,,0.01,WUHU216HW,2013-10-19 11:14:00,
2013-10-19 06:19:00,33.7,12.4,29.98,WSW,248,4.7,6.3,41,0.00,,,0.01,WUHU216HW,2013-10-19 11:19:00,
2013-10-19 06:24:00,33.7,12.4,29.97,South,180,3.4,5.1,41,0.00,,,0.01,WUHU216HW,2013-10-19 11:24:00,
2013-10-19 06:29:00,33.7,12.4,29.97,SSW,203,2.9,4.7,41,0.00,,,0.01,WUHU216HW,2013-10-19 11:29:00,
2013-10-19 06:34:00,33.7,12.4,29.98,SW,225,4.7,4.7,41,0.00,,,0.01,WUHU216HW,2013-10-19 11:34:00,
2013-10-19 06:39:00,33.8,12.6,29.97,SSW,203,3.1,4.7,41,0.00,,,0.01,WUHU216HW,2013-10-19 11:39:00,
2013-10-19 06:44:00,33.8,12.6,29.97,SW,225,1.8,4.7,41,0.00,,,0.01,WUHU216HW,2013-10-19 11:44:00,
2013-10-19 06:49:00,34.0,12.7,29.97,SSW,203,3.6,4.7,41,0.00,,,0.01,WUHU216HW,2013-10-19 11:49:00,
2013-10-19 06:54:00,33.8,12.6,29.97,SW,225,4.0,6.0,41,0.00,,,0.01,WUHU216HW,2013-10-19 11:54:00,
2013-10-19 06:59:00,33.8,12.6,29.97,SSW,203,3.4,6.0,41,0.00,,,0.01,WUHU216HW,2013-10-19 11:59:00,
2013-10-19 07:04:00,34.0,12.7,29.97,SSW,203,3.6,4.7,41,0.00,,,0.01,WUHU216HW,2013-10-19 12:04:00,
2013-10-19 07:09:00,34.0,12.7,29.97,SSW,203,2.9,6.0,41,0.00,,,0.01,WUHU216HW,2013-10-19 12:09:00,
2013-10-19 07:14:00,34.2,12.9,29.97,SSW,203,5.8,6.3,41,0.00,,,0.01,WUHU216HW,2013-10-19 12:14:00,
2013-10-19 07:19:00,34.2,12.9,29.97,SSW,203,4.7,6.3,41,0.00,,,0.01,WUHU216HW,2013-10-19 12:19:00,
2013-10-19 07:24:00,34.2,12.9,29.97,SSW,203,6.3,6.3,41,0.00,,,0.01,WUHU216HW,2013-10-19 12:24:00,
2013-10-19 07:29:00,34.2,12.9,29.97,SSW,203,4.9,6.3,41,0.00,,,0.01,WUHU216HW,2013-10-19 12:29:00,
2013-10-19 07:34:00,34.2,12.9,29.97,SSW,203,4.5,6.3,41,0.00,,,0.01,WUHU216HW,2013-10-19 12:34:00,
2013-10-19 07:39:00,34.4,13.1,29.97,West,270,2.9,5.1,41,0.00,,,0.01,WUHU216HW,2013-10-19 12:39:00,
2013-10-19 07:44:00,34.4,13.1,29.97,SW,225,6.0,6.0,41,0.00,,,0.01,WUHU216HW,2013-10-19 12:44:00,
2013-10-19 07:49:00,34.6,13.2,29.97,SW,225,7.6,7.6,41,0.00,,,0.01,WUHU216HW,2013-10-19 12:49:00,
2013-10-19 07:54:00,34.6,13.2,29.98,SSW,203,3.4,7.6,41,0.00,,,0.01,WUHU216HW,2013-10-19 12:54:00,
2013-10-19 07:59:00,34.7,13.9,29.97,SSW,203,6.3,7.6,42,0.00,,,0.01,WUHU216HW,2013-10-19 12:59:00,
2013-10-19 08:04:00,34.9,14.0,29.97,SSW,203,4.7,6.3,42,0.00,,,0.01,WUHU216HW,2013-10-19 13:04:00,
2013-10-19 08:09:00,34.9,14.0,29.97,SSW,203,4.5,6.3,42,0.00,,,0.01,WUHU216HW,2013-10-19 13:09:00,
2013-10-19 08:14:00,35.1,14.2,29.97,SSW,203,5.4,5.4,42,0.00,,,0.01,WUHU216HW,2013-10-19 13:14:00,
2013-10-19 08:19:00,35.3,14.4,29.97,SW,225,7.6,7.6,42,0.00,,,0.01,WUHU216HW,2013-10-19 13:19:00,
2013-10-19 08:24:00,35.5,14.1,29.98,SSW,203,5.4,7.6,41,0.00,,,0.01,WUHU216HW,2013-10-19 13:24:00,
2013-10-19 08:29:00,35.5,14.1,29.97,SSW,203,6.7,6.7,41,0.00,,,0.01,WUHU216HW,2013-10-19 13:29:00,
2013-10-19 08:34:00,35.6,14.2,29.98,SW,225,5.1,6.7,41,0.00,,,0.01,WUHU216HW,2013-10-19 13:34:00,
2013-10-19 08:39:00,35.6,14.2,29.98,SSW,203,4.9,6.7,41,0.00,,,0.01,WUHU216HW,2013-10-19 13:39:00,
2013-10-19 08:44:00,35.8,14.4,29.98,SW,225,6.5,6.5,41,0.00,,,0.01,WUHU216HW,2013-10-19 13:44:00,
2013-10-19 08:49:00,36.0,14.1,29.98,SW,225,6.3,6.5,40,0.00,,,0.01,WUHU216HW,2013-10-19 13:49:00,
2013-10-19 08:54:00,36.4,14.3,29.98,SSW,203,4.0,6.3,40,0.00,,,0.01,WUHU216HW,2013-10-19 13:54:00,
2013-10-19 08:59:00,36.4,14.3,29.98,West,270,3.1,6.3,40,0.00,,,0.01,WUHU216HW,2013-10-19 13:59:00,
2013-10-19 09:04:00,36.4,14.3,29.98,SSW,203,4.9,4.9,40,0.00,,,0.01,WUHU216HW,2013-10-19 14:04:00,
2013-10-19 09:09:00,36.7,14.1,29.98,SSW,203,4.9,4.9,39,0.00,,,0.01,WUHU216HW,2013-10-19 14:09:00,
2013-10-19 09:14:00,36.7,14.1,29.98,SSW,203,4.7,4.9,39,0.00,,,0.01,WUHU216HW,2013-10-19 14:14:00,
2013-10-19 09:19:00,37.1,14.3,29.98,SSW,203,6.0,6.0,39,0.00,,,0.01,WUHU216HW,2013-10-19 14:19:00,
2013-10-19 09:24:00,37.1,14.3,29.98,WSW,248,4.7,6.0,39,0.00,,,0.01,WUHU216HW,2013-10-19 14:24:00,
2013-10-19 09:29:00,37.4,14.1,29.99,South,180,4.7,6.0,38,0.00,,,0.01,WUHU216HW,2013-10-19 14:29:00,
2013-10-19 09:34:00,37.6,14.1,29.99,SSW,203,5.4,5.4,38,0.00,,,0.01,WUHU216HW,2013-10-19 14:34:00,
2013-10-19 09:39:00,38.0,13.9,29.99,SW,225,3.8,5.4,37,0.00,,,0.01,WUHU216HW,2013-10-19 14:39:00,
2013-10-19 09:44:00,38.3,14.1,29.98,SSW,203,5.6,5.6,37,0.00,,,0.01,WUHU216HW,2013-10-19 14:44:00,
2013-10-19 09:49:00,38.5,14.3,29.99,SSW,203,6.7,6.7,37,0.00,,,0.01,WUHU216HW,2013-10-19 14:49:00,
2013-10-19 09:54:00,38.7,13.9,29.99,SSW,203,4.7,6.7,36,0.00,,,0.01,WUHU216HW,2013-10-19 14:54:00,
2013-10-19 09:59:00,39.2,14.9,29.98,SW,225,4.7,6.7,37,0.00,,,0.01,WUHU216HW,2013-10-19 14:59:00,
2013-10-19 10:04:00,39.6,15.3,29.98,SSW,203,7.6,7.6,37,0.00,,,0.01,WUHU216HW,2013-10-19 15:04:00,
2013-10-19 10:09:00,39.8,16.1,29.99,SSW,203,8.5,8.5,38,0.00,,,0.01,WUHU216HW,2013-10-19 15:09:00,
2013-10-19 10:14:00,40.0,18.1,29.98,SSW,203,4.7,8.5,41,0.00,,,0.01,WUHU216HW,2013-10-19 15:14:00,
2013-10-19 10:19:00,40.3,17.9,29.99,SSW,203,4.7,8.5,40,0.00,,,0.01,WUHU216HW,2013-10-19 15:19:00,
2013-10-19 10:24:00,40.5,19.6,29.98,SSW,203,4.0,4.7,43,0.00,,,0.01,WUHU216HW,2013-10-19 15:24:00,
2013-10-19 10:29:00,40.7,19.8,29.98,SSW,203,2.9,4.7,43,0.00,,,0.01,WUHU216HW,2013-10-19 15:29:00,
2013-10-19 10:34:00,40.9,21.5,29.98,SSW,203,5.1,6.0,46,0.00,,,0.01,WUHU216HW,2013-10-19 15:34:00,
2013-10-19 10:39:00,40.9,20.4,29.98,WSW,248,1.8,6.0,44,0.00,,,0.01,WUHU216HW,2013-10-19 15:39:00,
2013-10-19 10:44:00,41.8,20.8,29.97,SSW,203,7.8,7.8,43,0.00,,,0.01,WUHU216HW,2013-10-19 15:44:00,
2013-10-19 10:49:00,42.7,22.7,29.97,SSW,203,10.5,10.5,45,0.00,,,0.01,WUHU216HW,2013-10-19 15:49:00,
2013-10-19 10:54:00,42.8,26.8,29.97,WSW,248,5.8,10.5,53,0.00,,,0.01,WUHU216HW,2013-10-19 15:54:00,
2013-10-19 10:59:00,42.7,23.8,29.97,SSW,203,6.5,6.5,47,0.00,,,0.01,WUHU216HW,2013-10-19 15:59:00,
2013-10-19 11:04:00,42.3,24.5,29.97,SSW,203,7.2,7.2,49,0.00,,,0.01,WUHU216HW,2013-10-19 16:04:00,
2013-10-19 11:09:00,42.5,25.2,29.97,SW,225,6.3,7.2,50,0.00,,,0.01,WUHU216HW,2013-10-19 16:09:00,
2013-10-19 11:14:00,43.2,25.9,29.97,SSW,203,5.1,7.2,50,0.00,,,0.01,WUHU216HW,2013-10-19 16:14:00,
2013-10-19 11:19:00,43.6,25.1,29.97,SSW,203,7.8,7.8,48,0.00,,,0.01,WUHU216HW,2013-10-19 16:19:00,
2013-10-19 11:24:00,44.3,25.2,29.97,SW,225,6.9,7.8,47,0.00,,,0.01,WUHU216HW,2013-10-19 16:24:00,
2013-10-19 11:29:00,44.8,26.3,29.97,South,180,7.2,10.5,48,0.00,,,0.01,WUHU216HW,2013-10-19 16:29:00,
2013-10-19 11:34:00,45.0,26.5,29.97,South,180,9.8,10.5,48,0.00,,,0.01,WUHU216HW,2013-10-19 16:34:00,
2013-10-19 11:39:00,44.8,27.4,29.96,South,180,10.1,10.1,50,0.00,,,0.01,WUHU216HW,2013-10-19 16:39:00,
2013-10-19 11:44:00,45.7,27.6,29.96,SSW,203,8.1,10.1,49,0.00,,,0.01,WUHU216HW,2013-10-19 16:44:00,
2013-10-19 11:49:00,45.9,30.6,29.96,SSW,203,7.2,10.1,55,0.00,,,0.01,WUHU216HW,2013-10-19 16:49:00,
2013-10-19 11:54:00,46.3,30.0,29.96,SSW,203,9.4,9.4,53,0.00,,,0.01,WUHU216HW,2013-10-19 16:54:00,
2013-10-19 11:59:00,46.4,31.1,29.96,SW,225,9.6,9.6,55,0.00,,,0.01,WUHU216HW,2013-10-19 16:59:00,
2013-10-19 12:04:00,46.4,30.6,29.96,South,180,7.6,9.6,54,0.00,,,0.01,WUHU216HW,2013-10-19 17:04:00,
2013-10-19 12:09:00,47.3,32.4,29.96,SSW,203,7.6,9.6,56,0.00,,,0.01,WUHU216HW,2013-10-19 17:09:00,
2013-10-19 12:14:00,47.9,33.4,29.95,SSW,203,6.3,7.6,57,0.00,,,0.01,WUHU216HW,2013-10-19 17:14:00,
2013-10-19 12:19:00,47.9,32.9,29.95,South,180,6.7,7.6,56,0.00,,,0.01,WUHU216HW,2013-10-19 17:19:00,
2013-10-19 12:24:00,48.6,35.8,29.95,SW,225,8.7,8.7,61,0.00,,,0.01,WUHU216HW,2013-10-19 17:24:00,
2013-10-19 12:29:00,48.6,35.8,29.95,SW,225,8.7,8.7,61,0.00,,,0.01,WUHU216HW,2013-10-19 17:29:00,
2013-10-19 12:34:00,48.6,35.8,29.95,SW,225,8.7,8.7,61,0.00,,,0.01,WUHU216HW,2013-10-19 17:34:00,
2013-10-19 12:55:00,50.8,38.2,29.94,South,180,4.7,4.7,62,0.00,,,0.01,WUHU216HW,2013-10-19 17:55:00,
2013-10-19 13:00:00,51.5,39.2,29.93,WSW,248,5.8,5.8,63,0.00,,,0.01,WUHU216HW,2013-10-19 18:00:00,
2013-10-19 13:05:00,52.0,39.0,29.93,SSW,203,6.9,6.9,61,0.00,,,0.01,WUHU216HW,2013-10-19 18:05:00,
2013-10-19 13:10:00,52.7,39.2,29.93,SSW,203,8.5,8.5,60,0.00,,,0.01,WUHU216HW,2013-10-19 18:10:00,
2013-10-19 13:15:00,53.5,40.8,29.92,SW,225,5.4,8.5,62,0.00,,,0.01,WUHU216HW,2013-10-19 18:15:00,
2013-10-19 13:20:00,53.5,40.8,29.92,South,180,2.9,5.4,62,0.00,,,0.01,WUHU216HW,2013-10-19 18:20:00,
2013-10-19 13:25:00,53.5,40.8,29.92,WSW,248,9.8,9.8,62,0.00,,,0.01,WUHU216HW,2013-10-19 18:25:00,
2013-10-19 13:30:00,53.6,40.5,29.92,SW,225,6.7,9.8,61,0.00,,,0.01,WUHU216HW,2013-10-19 18:30:00,
2013-10-19 13:35:00,54.4,40.8,29.91,SSW,203,4.9,9.8,60,0.00,,,0.01,WUHU216HW,2013-10-19 18:35:00,
2013-10-19 13:40:00,54.7,41.5,29.92,WSW,248,4.7,8.5,61,0.00,,,0.01,WUHU216HW,2013-10-19 18:40:00,
2013-10-19 13:45:00,55.1,41.0,29.91,SSW,203,10.1,10.1,59,0.00,,,0.01,WUHU216HW,2013-10-19 18:45:00,
2013-10-19 13:50:00,54.9,41.3,29.91,SW,225,5.1,10.1,60,0.00,,,0.01,WUHU216HW,2013-10-19 18:50:00,
2013-10-19 13:55:00,56.2,41.0,29.91,SSW,203,9.2,10.1,57,0.00,,,0.01,WUHU216HW,2013-10-19 18:55:00,
2013-10-19 14:00:00,56.5,41.4,29.91,WSW,248,5.1,9.2,57,0.00,,,0.01,WUHU216HW,2013-10-19 19:00:00,
2013-10-19 14:05:00,56.9,41.3,29.91,SW,225,5.1,5.1,56,0.00,,,0.01,WUHU216HW,2013-10-19 19:05:00,
2013-10-19 14:10:00,56.5,41.0,29.91,South,180,8.5,8.5,56,0.00,,,0.01,WUHU216HW,2013-10-19 19:10:00,
2013-10-19 14:15:00,56.7,40.7,29.90,SW,225,6.5,8.5,55,0.00,,,0.01,WUHU216HW,2013-10-19 19:15:00,
2013-10-19 14:20:00,57.2,39.3,29.90,WNW,293,3.4,8.5,51,0.00,,,0.01,WUHU216HW,2013-10-19 19:20:00,
2013-10-19 14:25:00,57.8,41.2,29.90,SSW,203,6.5,7.6,54,0.00,,,0.01,WUHU216HW,2013-10-19 19:25:00,
2013-10-19 14:30:00,58.3,41.2,29.90,South,180,6.0,6.5,53,0.00,,,0.01,WUHU216HW,2013-10-19 19:30:00,
2013-10-19 14:35:00,58.3,39.9,29.90,SSW,203,4.9,6.5,50,0.00,,,0.01,WUHU216HW,2013-10-19 19:35:00,
2013-10-19 14:40:00,58.3,39.9,29.90,SW,225,11.4,11.4,50,0.00,,,0.01,WUHU216HW,2013-10-19 19:40:00,
2013-10-19 14:45:00,58.3,38.7,29.89,WSW,248,6.9,11.4,48,0.00,,,0.01,WUHU216HW,2013-10-19 19:45:00,
2013-10-19 14:50:00,58.3,38.7,29.89,SW,225,4.9,11.4,48,0.00,,,0.01,WUHU216HW,2013-10-19 19:50:00,
2013-10-19 14:55:00,58.7,37.3,29.89,SSW,203,3.6,6.9,45,0.00,,,0.01,WUHU216HW,2013-10-19 19:55:00,
2013-10-19 15:00:00,60.3,38.8,29.89,SSW,203,4.0,6.3,45,0.00,,,0.01,WUHU216HW,2013-10-19 20:00:00,
2013-10-19 15:05:00,60.5,38.3,29.89,SSW,203,3.8,6.3,44,0.00,,,0.01,WUHU216HW,2013-10-19 20:05:00,
2013-10-19 15:10:00,59.9,37.9,29.89,SW,225,10.5,10.5,44,0.00,,,0.01,WUHU216HW,2013-10-19 20:10:00,
2013-10-19 15:15:00,59.9,37.3,29.89,West,270,7.6,10.5,43,0.00,,,0.01,WUHU216HW,2013-10-19 20:15:00,
2013-10-19 15:20:00,59.9,37.9,29.89,NW,315,2.7,7.8,44,0.00,,,0.01,WUHU216HW,2013-10-19 20:20:00,
2013-10-19 15:25:00,60.7,39.1,29.89,SSW,203,5.6,7.6,45,0.00,,,0.01,WUHU216HW,2013-10-19 20:25:00,
2013-10-19 15:30:00,61.2,37.8,29.88,SSW,203,4.7,5.6,42,0.00,,,0.01,WUHU216HW,2013-10-19 20:30:00,
2013-10-19 15:35:00,60.8,37.5,29.88,WSW,248,8.9,8.9,42,0.00,,,0.01,WUHU216HW,2013-10-19 20:35:00,
2013-10-19 15:40:00,61.7,38.4,29.88,West,270,5.4,8.9,42,0.00,,,0.01,WUHU216HW,2013-10-19 20:40:00,
2013-10-19 15:45:00,61.9,37.9,29.88,SW,225,6.5,6.5,41,0.00,,,0.01,WUHU216HW,2013-10-19 20:45:00,
2013-10-19 15:50:00,61.6,38.2,29.88,SSE,158,1.6,6.5,42,0.00,,,0.01,WUHU216HW,2013-10-19 20:50:00,
2013-10-19 15:55:00,61.7,38.9,29.87,SW,225,6.0,6.5,43,0.00,,,0.01,WUHU216HW,2013-10-19 20:55:00,
2013-10-19 16:00:00,61.9,39.1,29.87,SSW,203,9.8,9.8,43,0.00,,,0.01,WUHU216HW,2013-10-19 21:00:00,
2013-10-19 16:05:00,61.6,38.2,29.87,SSW,203,8.5,9.8,42,0.00,,,0.01,WUHU216HW,2013-10-19 21:05:00,
2013-10-19 16:10:00,61.2,37.3,29.87,SSW,203,7.2,9.8,41,0.00,,,0.01,WUHU216HW,2013-10-19 21:10:00,
2013-10-19 16:15:00,61.6,37.6,29.87,SW,225,8.3,8.3,41,0.00,,,0.01,WUHU216HW,2013-10-19 21:15:00,
2013-10-19 16:20:00,62.3,37.6,29.86,SSW,203,7.2,8.3,40,0.00,,,0.01,WUHU216HW,2013-10-19 21:20:00,
2013-10-19 16:25:00,62.5,36.4,29.86,WSW,248,5.4,8.3,38,0.00,,,0.01,WUHU216HW,2013-10-19 21:25:00,
2013-10-19 16:30:00,62.3,36.9,29.86,SSW,203,5.4,7.2,39,0.00,,,0.01,WUHU216HW,2013-10-19 21:30:00,
2013-10-19 16:35:00,62.6,37.3,29.86,SSW,203,6.0,6.0,39,0.00,,,0.01,WUHU216HW,2013-10-19 21:35:00,
2013-10-19 16:40:00,62.5,36.4,29.86,SW,225,6.0,6.0,38,0.00,,,0.01,WUHU216HW,2013-10-19 21:40:00,
2013-10-19 16:45:00,62.5,36.4,29.86,SW,225,6.3,6.3,38,0.00,,,0.01,WUHU216HW,2013-10-19 21:45:00,
2013-10-19 16:50:00,62.5,35.6,29.86,SSW,203,5.6,7.4,37,0.00,,,0.01,WUHU216HW,2013-10-19 21:50:00,
2013-10-19 16:55:00,62.6,35.8,29.86,SSW,203,6.3,7.4,37,0.00,,,0.01,WUHU216HW,2013-10-19 21:55:00,
2013-10-19 17:00:00,62.6,35.1,29.86,SSW,203,2.9,6.3,36,0.00,,,0.01,WUHU216HW,2013-10-19 22:00:00,
2013-10-19 17:05:00,62.6,35.8,29.86,SSW,203,4.3,6.3,37,0.00,,,0.01,WUHU216HW,2013-10-19 22:05:00,
2013-10-19 17:10:00,62.6,35.8,29.85,West,270,6.0,6.0,37,0.00,,,0.01,WUHU216HW,2013-10-19 22:10:00,
2013-10-19 17:15:00,62.6,35.8,29.86,West,270,6.0,6.0,37,0.00,,,0.01,WUHU216HW,2013-10-19 22:15:00,
2013-10-19 17:20:00,62.6,35.8,29.86,West,270,6.0,6.0,37,0.00,,,0.01,WUHU216HW,2013-10-19 22:20:00,
2013-10-19 17:41:00,60.8,36.4,29.85,SW,225,3.6,3.6,40,0.00,,,0.01,WUHU216HW,2013-10-19 22:41:00,
2013-10-19 17:46:00,60.1,36.3,29.85,SW,225,5.1,5.1,41,0.00,,,0.01,WUHU216HW,2013-10-19 22:46:00,
2013-10-19 17:51:00,58.9,36.9,29.85,South,180,6.3,7.6,44,0.00,,,0.01,WUHU216HW,2013-10-19 22:51:00,
2013-10-19 17:56:00,58.7,37.3,29.85,SSW,203,4.9,7.6,45,0.00,,,0.01,WUHU216HW,2013-10-19 22:56:00,
2013-10-19 18:01:00,58.1,37.4,29.85,SW,225,3.1,6.3,46,0.00,,,0.01,WUHU216HW,2013-10-19 23:01:00,
2013-10-19 18:06:00,58.0,37.3,29.85,SSW,203,4.0,4.0,46,0.00,,,0.01,WUHU216HW,2013-10-19 23:06:00,
2013-10-19 18:11:00,57.6,37.4,29.85,SW,225,4.7,4.7,47,0.00,,,0.01,WUHU216HW,2013-10-19 23:11:00,
2013-10-19 18:16:00,57.2,37.7,29.85,SSW,203,3.6,4.7,48,0.00,,,0.01,WUHU216HW,2013-10-19 23:16:00,
2013-10-19 18:21:00,56.9,37.4,29.85,SW,225,4.7,4.7,48,0.00,,,0.01,WUHU216HW,2013-10-19 23:21:00,
2013-10-19 18:26:00,56.3,37.5,29.85,SSW,203,5.4,5.4,49,0.00,,,0.01,WUHU216HW,2013-10-19 23:26:00,
2013-10-19 18:31:00,56.0,37.6,29.85,SSW,203,4.0,5.4,50,0.00,,,0.01,WUHU216HW,2013-10-19 23:31:00,
2013-10-19 18:36:00,55.8,37.4,29.85,SSW,203,5.1,5.4,50,0.00,,,0.01,WUHU216HW,2013-10-19 23:36:00,
2013-10-19 18:41:00,55.8,37.4,29.85,SSW,203,5.1,5.1,50,0.00,,,0.01,WUHU216HW,2013-10-19 23:41:00,
2013-10-19 19:00:00,53.8,37.0,29.86,SSW,203,2.9,2.9,53,0.00,,,0.01,WUHU216HW,2013-10-20 00:00:00,
2013-10-19 19:05:00,53.6,37.4,29.86,SSW,203,4.0,4.0,54,0.00,,,0.01,WUHU216HW,2013-10-20 00:05:00,
2013-10-19 19:10:00,53.1,37.7,29.86,SSW,203,2.9,4.0,56,0.00,,,0.01,WUHU216HW,2013-10-20 00:10:00,
2013-10-19 19:15:00,53.1,38.3,29.86,SSW,203,3.6,3.6,57,0.00,,,0.01,WUHU216HW,2013-10-20 00:15:00,
2013-10-19 19:20:00,52.9,38.1,29.86,SSW,203,4.7,4.7,57,0.00,,,0.01,WUHU216HW,2013-10-20 00:20:00,
2013-10-19 19:25:00,52.7,38.4,29.86,South,180,3.1,4.7,58,0.00,,,0.01,WUHU216HW,2013-10-20 00:25:00,
2013-10-19 19:30:00,52.4,38.4,29.86,SSW,203,3.8,4.7,59,0.00,,,0.01,WUHU216HW,2013-10-20 00:30:00,
2013-10-19 19:35:00,52.2,38.3,29.86,SSW,203,4.0,4.0,59,0.00,,,0.01,WUHU216HW,2013-10-20 00:35:00,
2013-10-19 19:40:00,52.2,38.7,29.87,SSW,203,3.1,4.0,60,0.00,,,0.01,WUHU216HW,2013-10-20 00:40:00,
2013-10-19 19:45:00,52.0,38.5,29.87,South,180,3.6,4.0,60,0.00,,,0.01,WUHU216HW,2013-10-20 00:45:00,
2013-10-19 19:50:00,51.7,38.6,29.87,South,180,3.1,3.6,61,0.00,,,0.01,WUHU216HW,2013-10-20 00:50:00,
2013-10-19 19:55:00,51.5,38.4,29.87,SSW,203,4.5,4.5,61,0.00,,,0.01,WUHU216HW,2013-10-20 00:55:00,
2013-10-19 20:00:00,51.5,38.4,29.87,SSW,203,5.1,5.1,61,0.00,,,0.01,WUHU216HW,2013-10-20 01:00:00,
2013-10-19 20:05:00,51.5,38.9,29.87,SSW,203,4.0,5.1,62,0.00,,,0.01,WUHU216HW,2013-10-20 01:05:00,
2013-10-19 20:10:00,51.3,38.7,29.87,SSW,203,3.8,4.7,62,0.00,,,0.01,WUHU216HW,2013-10-20 01:10:00,
2013-10-19 20:15:00,51.1,38.5,29.87,SSW,203,3.4,4.0,62,0.00,,,0.01,WUHU216HW,2013-10-20 01:15:00,
2013-10-19 20:20:00,50.9,38.3,29.87,South,180,3.4,3.8,62,0.00,,,0.01,WUHU216HW,2013-10-20 01:20:00,
2013-10-19 20:25:00,50.6,38.0,29.87,South,180,4.7,4.7,62,0.00,,,0.01,WUHU216HW,2013-10-20 01:25:00,
2013-10-19 20:30:00,50.4,38.3,29.87,SSW,203,4.9,4.9,63,0.00,,,0.01,WUHU216HW,2013-10-20 01:30:00,
2013-10-19 20:35:00,50.4,38.6,29.87,SSW,203,4.3,4.9,64,0.00,,,0.01,WUHU216HW,2013-10-20 01:35:00,
2013-10-19 20:40:00,50.4,38.6,29.87,SSW,203,4.7,4.9,64,0.00,,,0.01,WUHU216HW,2013-10-20 01:40:00,
2013-10-19 20:45:00,50.0,38.4,29.87,SSW,203,3.8,4.7,64,0.00,,,0.01,WUHU216HW,2013-10-20 01:45:00,
2013-10-19 20:50:00,50.0,38.4,29.87,SSW,203,3.6,4.5,64,0.00,,,0.01,WUHU216HW,2013-10-20 01:50:00,
2013-10-19 20:55:00,49.9,38.2,29.87,SSW,203,3.8,3.8,64,0.00,,,0.01,WUHU216HW,2013-10-20 01:55:00,
2013-10-19 21:00:00,49.7,38.0,29.87,South,180,5.6,5.6,64,0.00,,,0.01,WUHU216HW,2013-10-20 02:00:00,
2013-10-19 21:05:00,49.7,38.0,29.87,South,180,4.5,5.6,64,0.00,,,0.01,WUHU216HW,2013-10-20 02:05:00,
2013-10-19 21:10:00,49.3,37.6,29.87,South,180,4.0,5.6,64,0.00,,,0.01,WUHU216HW,2013-10-20 02:10:00,
2013-10-19 21:15:00,49.1,37.1,29.87,SSW,203,4.3,4.5,63,0.00,,,0.01,WUHU216HW,2013-10-20 02:15:00,
2013-10-19 21:20:00,49.1,37.1,29.87,SSW,203,6.3,6.3,63,0.00,,,0.01,WUHU216HW,2013-10-20 02:20:00,
2013-10-19 21:25:00,49.0,36.9,29.86,South,180,4.3,6.3,63,0.00,,,0.01,WUHU216HW,2013-10-20 02:25:00,
2013-10-19 21:30:00,48.8,36.4,29.86,South,180,4.9,6.3,62,0.00,,,0.01,WUHU216HW,2013-10-20 02:30:00,
2013-10-19 21:35:00,49.0,36.6,29.86,SSW,203,5.4,6.0,62,0.00,,,0.01,WUHU216HW,2013-10-20 02:35:00,
2013-10-19 21:40:00,48.8,36.0,29.86,South,180,3.8,6.0,61,0.00,,,0.01,WUHU216HW,2013-10-20 02:40:00,
2013-10-19 21:45:00,49.0,36.6,29.86,South,180,6.0,7.6,62,0.00,,,0.01,WUHU216HW,2013-10-20 02:45:00,
2013-10-19 21:50:00,49.0,36.6,29.86,SSW,203,4.7,7.6,62,0.00,,,0.01,WUHU216HW,2013-10-20 02:50:00,
2013-10-19 21:55:00,49.0,36.1,29.87,South,180,4.9,6.0,61,0.00,,,0.01,WUHU216HW,2013-10-20 02:55:00,
2013-10-19 22:00:00,49.0,36.1,29.87,South,180,6.3,6.7,61,0.00,,,0.01,WUHU216HW,2013-10-20 03:00:00,
2013-10-19 22:05:00,49.0,36.1,29.86,SSW,203,4.7,6.7,61,0.00,,,0.01,WUHU216HW,2013-10-20 03:05:00,
2013-10-19 22:10:00,48.8,36.0,29.87,SSW,203,4.7,6.3,61,0.00,,,0.01,WUHU216HW,2013-10-20 03:10:00,
2013-10-19 22:15:00,48.8,36.0,29.87,South,180,5.4,5.4,61,0.00,,,0.01,WUHU216HW,2013-10-20 03:15:00,
2013-10-19 22:20:00,49.0,36.1,29.87,South,180,6.5,6.5,61,0.00,,,0.01,WUHU216HW,2013-10-20 03:20:00,
2013-10-19 22:25:00,48.8,36.0,29.87,SSW,203,4.9,6.5,61,0.00,,,0.01,WUHU216HW,2013-10-20 03:25:00,
2013-10-19 22:30:00,48.8,36.0,29.87,SSW,203,5.4,5.4,61,0.00,,,0.01,WUHU216HW,2013-10-20 03:30:00,
2013-10-19 22:35:00,49.0,36.1,29.87,SSW,203,4.9,5.4,61,0.00,,,0.01,WUHU216HW,2013-10-20 03:35:00,
2013-10-19 22:40:00,49.1,36.3,29.87,SW,225,7.2,7.2,61,0.00,,,0.01,WUHU216HW,2013-10-20 03:40:00,
2013-10-19 22:45:00,49.1,36.3,29.87,South,180,4.7,7.2,61,0.00,,,0.01,WUHU216HW,2013-10-20 03:45:00,
2013-10-19 22:50:00,49.1,36.3,29.87,SSW,203,5.4,7.2,61,0.00,,,0.01,WUHU216HW,2013-10-20 03:50:00,
2013-10-19 22:55:00,49.1,36.3,29.87,SSW,203,6.3,7.6,61,0.00,,,0.01,WUHU216HW,2013-10-20 03:55:00,
2013-10-19 23:00:00,49.1,36.3,29.87,South,180,6.3,7.6,61,0.00,,,0.01,WUHU216HW,2013-10-20 04:00:00,
2013-10-19 23:01:00,49.1,36.3,29.87,South,180,6.3,7.6,61,0.00,,,0.01,WUHU216HW,2013-10-20 04:01:00,
2013-10-19 23:02:00,49.1,36.3,29.87,South,180,6.3,7.6,61,0.00,,,0.01,WUHU216HW,2013-10-20 04:02:00,
2013-10-19 23:07:00,49.0,36.1,29.87,South,180,9.6,9.6,61,0.00,,,0.01,WUHU216HW,2013-10-20 04:07:00,
2013-10-19 23:12:00,48.8,36.0,29.87,SSW,203,5.8,9.6,61,0.00,,,0.01,WUHU216HW,2013-10-20 04:12:00,
2013-10-19 23:17:00,49.0,36.1,29.86,SSW,203,5.4,9.6,61,0.00,,,0.01,WUHU216HW,2013-10-20 04:17:00,
2013-10-19 23:22:00,48.8,36.0,29.86,SSW,203,7.4,7.4,61,0.00,,,0.01,WUHU216HW,2013-10-20 04:22:00,
2013-10-19 23:27:00,48.6,35.8,29.86,South,180,7.4,7.4,61,0.00,,,0.01,WUHU216HW,2013-10-20 04:27:00,
2013-10-19 23:32:00,48.6,35.8,29.86,SSW,203,5.8,7.4,61,0.00,,,0.01,WUHU216HW,2013-10-20 04:32:00,
2013-10-19 23:37:00,48.6,35.8,29.86,South,180,4.5,7.4,61,0.00,,,0.01,WUHU216HW,2013-10-20 04:37:00,
2013-10-19 23:42:00,48.4,35.6,29.86,SW,225,8.1,8.1,61,0.00,,,0.01,WUHU216HW,2013-10-20 04:42:00,
2013-10-19 23:47:00,48.4,35.6,29.86,SSW,203,10.5,10.5,61,0.00,,,0.01,WUHU216HW,2013-10-20 04:47:00,
2013-10-19 23:52:00,48.4,35.6,29.86,SSW,203,4.5,10.5,61,0.00,,,0.01,WUHU216HW,2013-10-20 04:52:00,
2013-10-19 23:57:00,48.2,35.5,29.85,SSW,203,4.9,10.5,61,0.00,,,0.01,WUHU216HW,2013-10-20 04:57:00,